Voltar ao catálogo

STARLINK-32323

AtivoComunicaçõesVLEO
NORAD 61677·PAYLOAD·🇺🇸 United States

Lançado Oct 26, 2024 de Cape Canaveral Space Force Station

Loading…

Próximas Passagens (próximas 24 horas)

TLE

AtualizadoSource: CelesTrak SupGP

Época: Sep 14, 2026, 15:24 UTC

1 61677C 24193S   26257.64215278 -.00000405  00000+0 -11981-4 0  2574
2 61677  53.1579 288.8553 0001239  82.4989 123.9369 15.34383042    10

Acompanhe STARLINK-32323 em tempo real com AllMySat

Download on the App Store